Terminal Aerodrome Forecast
Issued by NWS Jackson, MS

Home | Current Version | Previous Version | Text Only | Print | Product List | Glossary On
Versions: 1 2 3 4 5 6 7 8 9 10 11 12 13 14
000
FTUS44 KMEG 300524
TAFTUP
TAF
KTUP 300524Z 3006/3106 00000KT P6SM SCT050 BKN250
      TEMPO 3010/3013 4SM BR
     FM301500 02005KT P6SM FEW050 SCT250
     FM310000 00000KT P6SM SKC=

USA.gov is the U.S. government's official web portal to all federal, state and local government web resources and services.